"SCET";"TARGET";"ELECTRON_DENSITY";"ERROR_FLAG";"ELECTRON_DENSITY_ERROR";"FREQ_FCE";"MEASURED_VALUE";"MEASURED_ITEM";"FREQ_PLASMA";"FREQ_UPPER_HYBRID";"FREQ_R_EQUALS_ZERO";"FREQ_L_EQUALS_ZERO";"ORBIT_NUMBER";"SATURN_RADIUS";"SATURN_IAU_LONGITUDE";"SATURN_SLS4_S_LONGITUDE";"SATURN_SLS4_N_LONGITUDE";"SATURN_SLS5_S_LONGITUDE";"SATURN_SLS5_N_LONGITUDE";"SATURN_LOCAL_TIME";"SATURN_KRONOGRAPHIC_LATITUDE";"SATURN_MAGNETIC_LATITUDE";"SATURN_L";"SATURN_L_OFFSET";"SATURN_SOLAR_EQUATORIAL_X";"SATURN_SOLAR_EQUATORIAL_Y";"SATURN_SOLAR_EQUATORIAL_Z";"SATURN_ALTITUDE";"ENCELADUS_ENCOUNTER_NUMBER";"ENCELADUS_RADIUS";"ENCELADUS_COROTATIONAL_X";"ENCELADUS_COROTATIONAL_Y";"ENCELADUS_COROTATIONAL_Z";"ENCELADUS_TRUE_ANOMALY";"ENCELADUS_PERIAPSIS_TIME";"JUPITER_RADIUS";"JUPITER_SYSTEMIII_LONGITUDE";"JUPITER_MAGNETIC_LATITUDE";"JUPITER_MAGNETIC_LOCAL_TIME";"JUPITER_L";"IO_PHASE";"EARTH_RADIUS";"EARTH_MAGNETIC_LATITUDE";"EARTH_LOCAL_TIME";"EARTH_L"
"[UTC]";"[0=Saturn, 1=Enceladus, 2=Jupiter, 3=Earth]";"[cm-3]";"[0=automated, 1=manual]";"[normalized density error]";"[Hz]";"[Hz]";"[0=upper hybrid frequency, 1=plasma frequency cutoff]";"[Hz]";"[Hz]";"[Hz]";"[Hz}";"[0, A, B, C, 3, 4, ... , 292, 293]";"[Rs where 1Rs=60268km]";"[degrees]";"[degrees]";"[degrees]";"[degrees]";"[degrees]";"[hours]";"[degrees]";"[degrees where offset=2293km north]";"[Rs where 1Rs=60268km]";"[Rs where 1Rs=60268km and offset=2293km north]";"[Rs where 1Rs=60268km]";"[Rs where 1Rs=60268km]";"[Rs where 1Rs=60268km]";"[km where ellipsoid a,b=60268km and c=54364km]";"[E0, E1, E2, ... , E21, E22]";"[Renc where 1Renc=252.1km]";"[Renc where 1Renc=252.1km]";"[Renc where 1Renc=252.1km]";"[Renc where 1Renc=252.1km]";"[degrees]";"[UTC]";"[Rj where 1Rj=71492km]";"[degrees]";"[degrees using JRM09 model]";"[hours using JRM09 model]";"[Rj where 1Rj=71492km]";"[degrees]";"[Re where 1Re=6378.1366km]";"[degrees]";"[hours]";"[Re where 1Re=6378.1366km]"
2012-03-28T00:00:04.192Z;0;6.7550e+01;0;     0.092; 10567.088;  74558.844; 0;  73806.219;  74558.844;  79278.633;  68711.547;163;   3.753; 303.222;;; 221.622; 185.722;   7.077;  -0.383;  -0.964;   3.753;   3.749;   1.044;  -3.605;  -0.025;;;;;;;;;;;;;;;;;;
2012-03-28T00:00:20.192Z;0;6.8270e+01;0;     0.107; 10567.088;  74945.227; 0;  74196.523;  74945.227;  79667.945;  69100.859;163;   3.754; 303.306;;; 221.705; 185.805;   7.081;  -0.383;  -0.964;   3.755;   3.751;   1.049;  -3.605;  -0.025;;;;;;;;;;;;;;;;;;
2012-03-28T00:00:36.191Z;0;6.8540e+01;0;     0.101; 10567.088;  75092.344; 0;  74345.117;  75092.344;  79816.172;  69249.086;163;   3.756; 303.390;;; 221.788; 185.888;   7.086;  -0.383;  -0.963;   3.756;   3.753;   1.053;  -3.605;  -0.025;;;;;;;;;;;;;;;;;;
2012-03-28T00:00:52.191Z;0;6.8610e+01;0;     0.092; 10567.088;  75130.367; 0;  74383.523;  75130.367;  79854.477;  69287.391;163;   3.758; 303.473;;; 221.870; 185.970;   7.090;  -0.383;  -0.963;   3.758;   3.754;   1.058;  -3.606;  -0.025;;;;;;;;;;;;;;;;;;
2012-03-28T00:01:08.191Z;0;6.8020e+01;0;     0.095; 10516.660;  74802.133; 0;  74059.156;  74802.133;  79503.930;  68987.266;163;   3.759; 303.557;;; 221.953; 186.053;   7.094;  -0.383;  -0.962;   3.760;   3.756;   1.063;  -3.606;  -0.025;;;;;;;;;;;;;;;;;;
2012-03-28T00:01:24.191Z;0;6.8480e+01;0;     0.089; 10516.660;  75051.883; 0;  74311.406;  75051.883;  79755.547;  69238.883;163;   3.761; 303.641;;; 222.036; 186.136;   7.099;  -0.383;  -0.962;   3.761;   3.758;   1.067;  -3.606;  -0.025;;;;;;;;;;;;;;;;;;
2012-03-28T00:01:40.191Z;0;6.8410e+01;0;     0.092; 10516.660;  75015.250; 0;  74274.406;  75015.250;  79718.641;  69201.977;163;   3.763; 303.725;;; 222.120; 186.220;   7.103;  -0.382;  -0.962;   3.763;   3.759;   1.072;  -3.607;  -0.025;;;;;;;;;;;;;;;;;;
2012-03-28T00:01:56.191Z;0;6.8070e+01;0;     0.092; 10516.660;  74832.719; 0;  74090.055;  74832.719;  79534.742;  69018.086;163;   3.764; 303.809;;; 222.203; 186.303;   7.108;  -0.382;  -0.961;   3.764;   3.761;   1.076;  -3.607;  -0.025;;;;;;;;;;;;;;;;;;
2012-03-28T00:02:12.191Z;0;6.8050e+01;0;     0.093; 10463.012;  74815.664; 0;  74080.422;  74815.664;  79496.422;  69033.406;163;   3.766; 303.893;;; 222.286; 186.386;   7.112;  -0.382;  -0.961;   3.766;   3.762;   1.081;  -3.607;  -0.025;;;;;;;;;;;;;;;;;;
2012-03-28T00:02:28.191Z;0;6.8770e+01;0;     0.092; 10463.012;  75202.406; 0;  74470.984;  75202.406;  79886.016;  69423.008;163;   3.768; 303.977;;; 222.369; 186.469;   7.116;  -0.382;  -0.960;   3.768;   3.764;   1.086;  -3.607;  -0.025;;;;;;;;;;;;;;;;;;
2012-03-28T00:02:44.191Z;0;6.8600e+01;0;     0.095; 10463.012;  75107.164; 0;  74374.805;  75107.164;  79790.078;  69327.062;163;   3.769; 304.061;;; 222.453; 186.553;   7.121;  -0.382;  -0.960;   3.769;   3.766;   1.090;  -3.608;  -0.025;;;;;;;;;;;;;;;;;;
2012-03-28T00:03:16.190Z;0;6.7460e+01;0;     0.101; 10412.220;  74489.117; 0;  73757.805;  74489.117;  79147.422;  68735.203;163;   3.772; 304.229;;; 222.619; 186.719;   7.130;  -0.382;  -0.959;   3.773;   3.769;   1.100;  -3.608;  -0.025;;;;;;;;;;;;;;;;;;
2012-03-28T00:03:32.190Z;0;6.8390e+01;0;     0.094; 10412.220;  74987.781; 0;  74261.383;  74987.781;  79649.758;  69237.539;163;   3.774; 304.314;;; 222.703; 186.803;   7.134;  -0.381;  -0.959;   3.774;   3.771;   1.104;  -3.609;  -0.025;;;;;;;;;;;;;;;;;;
2012-03-28T00:03:48.190Z;0;6.8890e+01;0;     0.091; 10412.220;  75256.078; 0;  74532.297;  75256.078;  79920.008;  69507.789;163;   3.776; 304.398;;; 222.786; 186.886;   7.138;  -0.381;  -0.958;   3.776;   3.772;   1.109;  -3.609;  -0.025;;;;;;;;;;;;;;;;;;
2012-03-28T00:04:04.190Z;0;6.9240e+01;0;     0.100; 10358.739;  75438.719; 0;  74724.141;  75438.719;  80082.789;  69724.055;163;   3.777; 304.483;;; 222.870; 186.970;   7.143;  -0.381;  -0.958;   3.778;   3.774;   1.114;  -3.609;  -0.025;;;;;;;;;;;;;;;;;;
2012-03-28T00:04:20.190Z;0;6.8810e+01;0;     0.093; 10358.739;  75207.008; 0;  74490.203;  75207.008;  79849.422;  69490.680;163;   3.779; 304.567;;; 222.954; 187.054;   7.147;  -0.381;  -0.958;   3.779;   3.776;   1.118;  -3.610;  -0.025;;;;;;;;;;;;;;;;;;
2012-03-28T00:04:36.190Z;0;6.9700e+01;0;     0.111; 10358.739;  75683.070; 0;  74970.820;  75683.070;  80328.883;  69970.148;163;   3.781; 304.652;;; 223.037; 187.137;   7.152;  -0.381;  -0.957;   3.781;   3.777;   1.123;  -3.610;  -0.025;;;;;;;;;;;;;;;;;;
2012-03-28T00:04:52.190Z;0;6.9590e+01;0;     0.115; 10358.739;  75626.719; 0;  74913.930;  75626.719;  80272.133;  69913.391;163;   3.782; 304.736;;; 223.121; 187.221;   7.156;  -0.381;  -0.957;   3.782;   3.779;   1.127;  -3.610;  -0.025;;;;;;;;;;;;;;;;;;
2012-03-28T00:04:52.190Z;0;6.9590e+01;0;     0.115; 10358.739;  75626.719; 0;  74913.930;  75626.719;  80272.133;  69913.391;163;   3.782; 304.736;;; 223.121; 187.221;   7.156;  -0.381;  -0.957;   3.782;   3.779;   1.127;  -3.610;  -0.025;;;;;;;;;;;;;;;;;;
2012-03-28T00:05:08.190Z;0;6.8850e+01;0;     0.093; 10305.540;  75221.516; 0;  74512.227;  75221.516;  79842.953;  69537.414;163;   3.784; 304.821;;; 223.205; 187.305;   7.160;  -0.381;  -0.956;   3.784;   3.781;   1.132;  -3.610;  -0.025;;;;;;;;;;;;;;;;;;
2012-03-28T00:05:24.190Z;0;6.8980e+01;0;     0.098; 10305.540;  75290.617; 0;  74581.984;  75290.617;  79912.547;  69607.008;163;   3.786; 304.906;;; 223.289; 187.389;   7.165;  -0.380;  -0.956;   3.786;   3.782;   1.137;  -3.611;  -0.025;;;;;;;;;;;;;;;;;;
2012-03-28T00:05:40.190Z;0;6.8840e+01;0;     0.089; 10305.540;  75215.766; 0;  74506.422;  75215.766;  79837.164;  69531.625;163;   3.787; 304.990;;; 223.373; 187.473;   7.169;  -0.380;  -0.956;   3.787;   3.784;   1.141;  -3.611;  -0.025;;;;;;;;;;;;;;;;;;
2012-03-28T00:05:56.189Z;0;6.9360e+01;0;     0.094; 10305.540;  75496.500; 0;  74789.820;  75496.500;  80119.883;  69814.344;163;   3.789; 305.075;;; 223.457; 187.557;   7.173;  -0.380;  -0.955;   3.789;   3.785;   1.146;  -3.611;  -0.025;;;;;;;;;;;;;;;;;;
2012-03-28T00:06:12.189Z;0;6.9090e+01;0;     0.091; 10252.340;  75342.531; 0;  74641.719;  75342.531;  79943.711;  69691.367;163;   3.791; 305.160;;; 223.541; 187.641;   7.178;  -0.380;  -0.955;   3.791;   3.787;   1.150;  -3.612;  -0.025;;;;;;;;;;;;;;;;;;
2012-03-28T00:06:28.189Z;0;6.9240e+01;0;     0.113; 10252.340;  75420.992; 0;  74720.922;  75420.992;  80022.719;  69770.383;163;   3.792; 305.245;;; 223.625; 187.725;   7.182;  -0.380;  -0.954;   3.792;   3.789;   1.155;  -3.612;  -0.025;;;;;;;;;;;;;;;;;;
2012-03-28T00:06:44.189Z;0;6.9350e+01;0;     0.100; 10252.340;  75482.852; 0;  74783.359;  75482.852;  80085.016;  69832.672;163;   3.794; 305.330;;; 223.709; 187.809;   7.186;  -0.380;  -0.954;   3.794;   3.790;   1.160;  -3.612;  -0.025;;;;;;;;;;;;;;;;;;
2012-03-28T00:07:00.189Z;0;6.9720e+01;0;     0.101; 10199.308;  75673.672; 0;  74983.188;  75673.672;  80256.062;  70056.750;163;   3.796; 305.415;;; 223.794; 187.894;   7.191;  -0.379;  -0.954;   3.796;   3.792;   1.164;  -3.612;  -0.025;;;;;;;;;;;;;;;;;;
2012-03-28T00:07:16.189Z;0;6.9640e+01;0;     0.095; 10199.308;  75631.383; 0;  74940.508;  75631.383;  80213.477;  70014.172;163;   3.797; 305.500;;; 223.878; 187.978;   7.195;  -0.379;  -0.953;   3.797;   3.794;   1.169;  -3.613;  -0.025;;;;;;;;;;;;;;;;;;
2012-03-28T00:07:32.189Z;0;7.0060e+01;0;     0.113; 10199.308;  75852.734; 0;  75163.898;  75852.734;  80436.352;  70237.047;163;   3.799; 305.585;;; 223.962; 188.062;   7.199;  -0.379;  -0.953;   3.799;   3.795;   1.174;  -3.613;  -0.025;;;;;;;;;;;;;;;;;;
2012-03-28T00:07:48.189Z;0;7.3480e+01;0;     0.108; 10199.308;  77647.344; 0;  76974.570;  77647.344;  82242.969;  72043.656;163;   3.801; 305.671;;; 224.047; 188.147;   7.204;  -0.379;  -0.952;   3.801;   3.797;   1.178;  -3.613;  -0.025;;;;;;;;;;;;;;;;;;
2012-03-28T00:08:04.189Z;0;7.2770e+01;0;     0.122; 10146.668;  77273.148; 0;  76604.078;  77273.148;  81845.227;  71698.555;163;   3.802; 305.756;;; 224.131; 188.231;   7.208;  -0.379;  -0.952;   3.802;   3.799;   1.183;  -3.613;  -0.025;;;;;;;;;;;;;;;;;;
2012-03-28T00:08:20.189Z;0;7.0570e+01;0;     0.103; 10146.668;  76114.500; 0;  75435.156;  76114.500;  80678.898;  70532.227;163;   3.804; 305.841;;; 224.216; 188.316;   7.212;  -0.379;  -0.952;   3.804;   3.801;   1.187;  -3.614;  -0.025;;;;;;;;;;;;;;;;;;
2012-03-28T00:08:36.188Z;0;7.0920e+01;0;     0.099; 10146.668;  76299.281; 0;  75621.594;  76299.281;  80864.914;  70718.250;163;   3.806; 305.927;;; 224.300; 188.400;   7.217;  -0.379;  -0.951;   3.806;   3.802;   1.192;  -3.614;  -0.025;;;;;;;;;;;;;;;;;;
2012-03-28T00:08:52.188Z;0;7.2740e+01;0;     0.102; 10146.668;  77257.305; 0;  76588.094;  77257.305;  81829.281;  71682.609;163;   3.807; 306.012;;; 224.385; 188.485;   7.221;  -0.378;  -0.951;   3.807;   3.804;   1.197;  -3.614;  -0.025;;;;;;;;;;;;;;;;;;
2012-03-28T00:09:08.188Z;0;7.4370e+01;0;     0.111; 10093.132;  78094.148; 0;  77439.164;  78094.148;  82650.000;  72556.867;163;   3.809; 306.098;;; 224.470; 188.570;   7.225;  -0.378;  -0.950;   3.809;   3.806;   1.201;  -3.614;  -0.025;;;;;;;;;;;;;;;;;;
2012-03-28T00:09:24.188Z;0;7.5680e+01;0;     0.105; 10093.132;  78768.711; 0;  78119.383;  78768.711;  83328.789;  73235.656;163;   3.811; 306.183;;; 224.554; 188.654;   7.230;  -0.378;  -0.950;   3.811;   3.807;   1.206;  -3.615;  -0.025;;;;;;;;;;;;;;;;;;
2012-03-28T00:09:40.188Z;0;7.5480e+01;0;     0.104; 10093.132;  78668.898; 0;  78018.742;  78668.898;  83228.352;  73135.227;163;   3.812; 306.269;;; 224.639; 188.739;   7.234;  -0.378;  -0.950;   3.813;   3.809;   1.210;  -3.615;  -0.025;;;;;;;;;;;;;;;;;;
2012-03-28T00:09:56.188Z;0;7.4490e+01;0;     0.109; 10093.132;  78158.719; 0;  77504.281;  78158.719;  82714.977;  72621.844;163;   3.814; 306.354;;; 224.724; 188.824;   7.238;  -0.378;  -0.949;   3.814;   3.811;   1.215;  -3.615;  -0.025;;;;;;;;;;;;;;;;;;
2012-03-28T00:10:12.188Z;0;7.5020e+01;0;     0.101; 10040.855;  78423.727; 0;  77778.289;  78423.727;  82960.578;  72919.719;163;   3.816; 306.440;;; 224.810; 188.910;   7.243;  -0.378;  -0.949;   3.816;   3.812;   1.220;  -3.615;  -0.025;;;;;;;;;;;;;;;;;;
2012-03-28T00:10:28.188Z;0;7.4580e+01;0;     0.104; 10040.855;  78196.438; 0;  77549.109;  78196.438;  82731.875;  72691.016;163;   3.817; 306.526;;; 224.897; 188.997;   7.247;  -0.377;  -0.948;   3.818;   3.814;   1.224;  -3.616;  -0.025;;;;;;;;;;;;;;;;;;
2012-03-28T00:10:44.188Z;0;7.4320e+01;0;     0.096; 10040.855;  78066.344; 0;  77417.930;  78066.344;  82600.969;  72560.109;163;   3.819; 306.612;;; 224.983; 189.083;   7.251;  -0.377;  -0.948;   3.819;   3.816;   1.229;  -3.616;  -0.025;;;;;;;;;;;;;;;;;;
2012-03-28T00:11:00.188Z;0;7.3780e+01;0;     0.096;  9988.412;  77776.211; 0;  77132.164;  77776.211;  82287.883;  72299.469;163;   3.821; 306.698;;; 225.070; 189.170;   7.255;  -0.377;  -0.947;   3.821;   3.817;   1.233;  -3.616;  -0.025;;;;;;;;;;;;;;;;;;
2012-03-28T00:11:16.187Z;0;7.3760e+01;0;     0.108;  9988.412;  77770.016; 0;  77125.914;  77770.016;  82281.648;  72293.234;163;   3.823; 306.784;;; 225.157; 189.257;   7.260;  -0.377;  -0.947;   3.823;   3.819;   1.238;  -3.616;  -0.025;;;;;;;;;;;;;;;;;;
2012-03-28T00:11:32.187Z;0;7.5450e+01;0;     0.099;  9988.412;  78638.359; 0;  78001.430;  78638.359;  83155.359;  73166.945;163;   3.824; 306.870;;; 225.243; 189.343;   7.264;  -0.377;  -0.947;   3.824;   3.821;   1.243;  -3.617;  -0.025;;;;;;;;;;;;;;;;;;
2012-03-28T00:11:48.187Z;0;7.4460e+01;0;     0.102;  9988.412;  78130.562; 0;  77489.461;  78130.562;  82644.438;  72656.023;163;   3.826; 306.956;;; 225.331; 189.431;   7.268;  -0.377;  -0.946;   3.826;   3.822;   1.247;  -3.617;  -0.025;;;;;;;;;;;;;;;;;;
2012-03-28T00:12:04.187Z;0;7.3420e+01;0;     0.110;  9936.557;  77583.406; 0;  76944.461;  77583.406;  82072.969;  72136.414;163;   3.828; 307.042;;; 225.418; 189.518;   7.272;  -0.376;  -0.946;   3.828;   3.824;   1.252;  -3.617;  -0.025;;;;;;;;;;;;;;;;;;
2012-03-28T00:12:20.187Z;0;7.3890e+01;0;     0.106;  9936.557;  77826.383; 0;  77189.445;  77826.383;  82317.453;  72380.891;163;   3.829; 307.128;;; 225.505; 189.605;   7.277;  -0.376;  -0.945;   3.829;   3.826;   1.256;  -3.617;  -0.025;;;;;;;;;;;;;;;;;;
2012-03-28T00:12:36.187Z;0;7.4250e+01;0;     0.096;  9936.557;  78012.484; 0;  77377.078;  78012.484;  82504.695;  72568.141;163;   3.831; 307.214;;; 225.592; 189.692;   7.281;  -0.376;  -0.945;   3.831;   3.828;   1.261;  -3.617;  -0.025;;;;;;;;;;;;;;;;;;
2012-03-28T00:12:52.187Z;0;7.4430e+01;0;     0.112;  9936.557;  78108.297; 0;  77473.680;  78108.297;  82601.102;  72664.539;163;   3.833; 307.301;;; 225.680; 189.780;   7.285;  -0.376;  -0.945;   3.833;   3.829;   1.266;  -3.618;  -0.025;;;;;;;;;;;;;;;;;;
2012-03-28T00:13:24.187Z;0;7.4670e+01;0;     0.108;  9884.532;  78224.812; 0;  77597.789;  78224.812;  82697.289;  72812.758;163;   3.836; 307.473;;; 225.856; 189.956;   7.294;  -0.376;  -0.944;   3.836;   3.833;   1.275;  -3.618;  -0.025;;;;;;;;;;;;;;;;;;
2012-03-28T00:13:40.187Z;0;7.3540e+01;0;     0.103;  9884.532;  77642.578; 0;  77010.820;  77642.578;  82111.508;  72226.977;163;   3.838; 307.560;;; 225.944; 190.044;   7.298;  -0.375;  -0.943;   3.838;   3.834;   1.279;  -3.618;  -0.025;;;;;;;;;;;;;;;;;;
2012-03-28T00:13:56.186Z;0;7.2590e+01;0;     0.108;  9884.532;  77144.148; 0;  76508.273;  77144.148;  81610.000;  71725.469;163;   3.840; 307.646;;; 226.032; 190.132;   7.302;  -0.375;  -0.943;   3.840;   3.836;   1.284;  -3.618;  -0.025;;;;;;;;;;;;;;;;;;
2012-03-28T00:14:12.186Z;0;7.3830e+01;0;     0.108;  9833.292;  77786.070; 0;  77162.031;  77786.070;  82235.156;  72401.867;163;   3.841; 307.733;;; 226.120; 190.220;   7.306;  -0.375;  -0.942;   3.841;   3.838;   1.289;  -3.619;  -0.025;;;;;;;;;;;;;;;;;;
2012-03-28T00:14:28.186Z;0;7.4200e+01;0;     0.106;  9833.292;  77976.617; 0;  77354.117;  77976.617;  82426.859;  72593.562;163;   3.843; 307.820;;; 226.208; 190.308;   7.311;  -0.375;  -0.942;   3.843;   3.840;   1.293;  -3.619;  -0.025;;;;;;;;;;;;;;;;;;
2012-03-28T00:14:44.186Z;0;7.3550e+01;0;     0.101;  9833.292;  77637.930; 0;  77012.688;  77637.930;  82086.125;  72252.828;163;   3.845; 307.906;;; 226.297; 190.397;   7.315;  -0.375;  -0.942;   3.845;   3.841;   1.298;  -3.619;  -0.025;;;;;;;;;;;;;;;;;;
2012-03-28T00:15:00.186Z;0;7.3680e+01;0;     0.112;  9781.548;  77701.125; 0;  77082.984;  77701.125;  82128.758;  72347.211;163;   3.846; 307.993;;; 226.385; 190.485;   7.319;  -0.375;  -0.941;   3.847;   3.843;   1.302;  -3.619;  -0.025;;;;;;;;;;;;;;;;;;
2012-03-28T00:15:16.186Z;0;7.3740e+01;0;     0.113;  9781.548;  77729.086; 0;  77111.164;  77729.086;  82156.883;  72375.336;163;   3.848; 308.080;;; 226.474; 190.574;   7.323;  -0.374;  -0.941;   3.848;   3.845;   1.307;  -3.619;  -0.025;;;;;;;;;;;;;;;;;;
2012-03-28T00:15:32.186Z;0;7.3830e+01;0;     0.100;  9781.548;  77779.312; 0;  77161.797;  77779.312;  82207.414;  72425.867;163;   3.850; 308.167;;; 226.563; 190.663;   7.328;  -0.374;  -0.940;   3.850;   3.846;   1.311;  -3.619;  -0.025;;;;;;;;;;;;;;;;;;
2012-03-28T00:15:48.186Z;0;7.3620e+01;0;     0.100;  9781.548;  77667.438; 0;  77049.023;  77667.438;  82094.867;  72313.320;163;   3.852; 308.254;;; 226.652; 190.752;   7.332;  -0.374;  -0.940;   3.852;   3.848;   1.316;  -3.620;  -0.025;;;;;;;;;;;;;;;;;;
2012-03-28T00:16:04.186Z;0;7.3580e+01;0;     0.104;  9730.195;  77640.609; 0;  77028.484;  77640.609;  82047.070;  72316.875;163;   3.853; 308.341;;; 226.741; 190.841;   7.336;  -0.374;  -0.940;   3.854;   3.850;   1.321;  -3.620;  -0.025;;;;;;;;;;;;;;;;;;
2012-03-28T00:16:20.185Z;0;7.3580e+01;0;     0.112;  9730.195;  77643.656; 0;  77031.555;  77643.656;  82050.133;  72319.938;163;   3.855; 308.428;;; 226.830; 190.930;   7.340;  -0.374;  -0.939;   3.855;   3.852;   1.325;  -3.620;  -0.025;;;;;;;;;;;;;;;;;;
2012-03-28T00:16:36.185Z;0;7.3850e+01;0;     0.121;  9730.195;  77779.008; 0;  77167.984;  77779.008;  82186.289;  72456.094;163;   3.857; 308.515;;; 226.919; 191.019;   7.344;  -0.374;  -0.939;   3.857;   3.853;   1.330;  -3.620;  -0.025;;;;;;;;;;;;;;;;;;
2012-03-28T00:16:52.185Z;0;7.2590e+01;0;     0.111;  9730.195;  77126.734; 0;  76510.500;  77126.734;  81530.117;  71799.922;163;   3.859; 308.602;;; 227.009; 191.109;   7.349;  -0.373;  -0.938;   3.859;   3.855;   1.334;  -3.620;  -0.025;;;;;;;;;;;;;;;;;;
2012-03-28T00:17:08.185Z;0;7.4400e+01;0;     0.108;  9678.816;  78060.188; 0;  77457.820;  78060.188;  82448.258;  72769.438;163;   3.860; 308.689;;; 227.099; 191.199;   7.353;  -0.373;  -0.938;   3.860;   3.857;   1.339;  -3.620;  -0.025;;;;;;;;;;;;;;;;;;
2012-03-28T00:17:24.185Z;0;7.4010e+01;0;     0.108;  9678.816;  77858.906; 0;  77254.969;  77858.906;  82245.805;  72566.984;163;   3.862; 308.777;;; 227.188; 191.288;   7.357;  -0.373;  -0.937;   3.862;   3.858;   1.343;  -3.621;  -0.025;;;;;;;;;;;;;;;;;;
2012-03-28T00:17:40.185Z;0;7.2430e+01;0;     0.112;  9678.816;  77037.477; 0;  76427.047;  77037.477;  81419.516;  71740.703;163;   3.864; 308.864;;; 227.278; 191.378;   7.361;  -0.373;  -0.937;   3.864;   3.860;   1.348;  -3.621;  -0.025;;;;;;;;;;;;;;;;;;
2012-03-28T00:17:56.185Z;0;7.2530e+01;0;     0.107;  9678.816;  77087.297; 0;  76477.266;  77087.297;  81469.633;  71790.820;163;   3.865; 308.951;;; 227.368; 191.468;   7.365;  -0.373;  -0.937;   3.866;   3.862;   1.353;  -3.621;  -0.025;;;;;;;;;;;;;;;;;;
2012-03-28T00:18:12.185Z;0;7.1260e+01;0;     0.101;  9627.632;  76413.977; 0;  75805.039;  76413.977;  80771.547;  71143.922;163;   3.867; 309.039;;; 227.458; 191.558;   7.370;  -0.373;  -0.936;   3.867;   3.864;   1.357;  -3.621;  -0.025;;;;;;;;;;;;;;;;;;
2012-03-28T00:18:28.185Z;0;7.3790e+01;0;     0.115;  9627.632;  77736.797; 0;  77138.305;  77736.797;  82102.180;  72474.547;163;   3.869; 309.126;;; 227.549; 191.649;   7.374;  -0.372;  -0.936;   3.869;   3.865;   1.362;  -3.621;  -0.025;;;;;;;;;;;;;;;;;;
2012-03-28T00:18:44.185Z;0;7.3600e+01;0;     0.109;  9627.632;  77636.883; 0;  77037.617;  77636.883;  82001.688;  72374.055;163;   3.871; 309.214;;; 227.639; 191.739;   7.378;  -0.372;  -0.935;   3.871;   3.867;   1.366;  -3.621;  -0.025;;;;;;;;;;;;;;;;;;
2012-03-28T00:19:00.184Z;0;7.2990e+01;0;     0.111;  9576.729;  77316.086; 0;  76720.688;  77316.086;  81658.328;  72081.602;163;   3.872; 309.301;;; 227.729; 191.829;   7.382;  -0.372;  -0.935;   3.873;   3.869;   1.371;  -3.621;  -0.025;;;;;;;;;;;;;;;;;;
2012-03-28T00:19:16.184Z;0;7.2830e+01;0;     0.105;  9576.729;  77231.312; 0;  76635.250;  77231.312;  81573.062;  71996.336;163;   3.874; 309.389;;; 227.820; 191.920;   7.386;  -0.372;  -0.934;   3.874;   3.871;   1.375;  -3.622;  -0.025;;;;;;;;;;;;;;;;;;
2012-03-28T00:19:32.184Z;0;7.3800e+01;0;     0.108;  9576.729;  77738.352; 0;  77146.211;  77738.352;  82083.031;  72506.305;163;   3.876; 309.477;;; 227.911; 192.011;   7.390;  -0.372;  -0.934;   3.876;   3.872;   1.380;  -3.622;  -0.025;;;;;;;;;;;;;;;;;;
2012-03-28T00:19:48.184Z;0;7.3670e+01;0;     0.116;  9576.729;  77669.320; 0;  77076.648;  77669.320;  82013.609;  72436.875;163;   3.878; 309.565;;; 228.002; 192.102;   7.395;  -0.372;  -0.934;   3.878;   3.874;   1.385;  -3.622;  -0.025;;;;;;;;;;;;;;;;;;
2012-03-28T00:20:04.184Z;0;7.1280e+01;0;     0.113;  9526.244;  76413.180; 0;  75817.047;  76413.180;  80729.641;  71203.398;163;   3.879; 309.652;;; 228.092; 192.192;   7.399;  -0.371;  -0.933;   3.880;   3.876;   1.389;  -3.622;  -0.025;;;;;;;;;;;;;;;;;;
2012-03-28T00:20:20.184Z;0;7.3960e+01;0;     0.116;  9526.244;  77814.461; 0;  77229.148;  77814.461;  82139.016;  72612.766;163;   3.881; 309.740;;; 228.180; 192.280;   7.403;  -0.371;  -0.933;   3.881;   3.878;   1.394;  -3.622;  -0.025;;;;;;;;;;;;;;;;;;
2012-03-28T00:20:36.184Z;0;7.0830e+01;0;     0.104;  9526.244;  76176.688; 0;  75578.688;  76176.688;  80491.758;  70965.508;163;   3.883; 309.828;;; 228.269; 192.369;   7.407;  -0.371;  -0.932;   3.883;   3.879;   1.398;  -3.622;  -0.025;;;;;;;;;;;;;;;;;;
2012-03-28T00:20:52.184Z;0;7.4180e+01;0;     0.109;  9526.244;  77925.922; 0;  77341.453;  77925.922;  82251.102;  72724.859;163;   3.885; 309.916;;; 228.357; 192.457;   7.411;  -0.371;  -0.932;   3.885;   3.881;   1.403;  -3.622;  -0.025;;;;;;;;;;;;;;;;;;
2012-03-28T00:21:08.184Z;0;7.3180e+01;0;     0.109;  9475.676;  77403.172; 0;  76820.977;  77403.172;  81704.773;  72229.102;163;   3.886; 310.004;;; 228.445; 192.545;   7.415;  -0.371;  -0.931;   3.887;   3.883;   1.407;  -3.622;  -0.025;;;;;;;;;;;;;;;;;;
2012-03-28T00:21:24.184Z;0;7.3300e+01;0;     0.120;  9475.676;  77465.188; 0;  76883.461;  77465.188;  81767.141;  72291.469;163;   3.888; 310.092;;; 228.534; 192.634;   7.419;  -0.371;  -0.931;   3.888;   3.885;   1.412;  -3.623;  -0.025;;;;;;;;;;;;;;;;;;
2012-03-28T00:21:40.183Z;0;7.1040e+01;0;     0.106;  9475.676;  76280.750; 0;  75689.922;  76280.750;  80575.898;  71100.227;163;   3.890; 310.181;;; 228.622; 192.722;   7.424;  -0.370;  -0.931;   3.890;   3.886;   1.417;  -3.623;  -0.025;;;;;;;;;;;;;;;;;;
2012-03-28T00:21:56.183Z;0;7.3640e+01;0;     0.100;  9475.676;  77641.109; 0;  77060.711;  77641.109;  81944.062;  72468.383;163;   3.892; 310.269;;; 228.710; 192.810;   7.428;  -0.370;  -0.930;   3.892;   3.888;   1.421;  -3.623;  -0.025;;;;;;;;;;;;;;;;;;
2012-03-28T00:22:12.183Z;0;7.2790e+01;0;     0.107;  9424.771;  77194.531; 0;  76617.031;  77194.531;  81474.195;  72049.430;163;   3.894; 310.357;;; 228.799; 192.899;   7.432;  -0.370;  -0.930;   3.894;   3.890;   1.426;  -3.623;  -0.025;;;;;;;;;;;;;;;;;;
2012-03-28T00:22:28.183Z;0;7.3190e+01;0;     0.106;  9424.771;  77398.547; 0;  76822.578;  77398.547;  81679.359;  72254.586;163;   3.895; 310.446;;; 228.887; 192.987;   7.436;  -0.370;  -0.929;   3.895;   3.892;   1.430;  -3.623;  -0.025;;;;;;;;;;;;;;;;;;
2012-03-28T00:22:44.183Z;0;7.2560e+01;0;     0.109;  9424.771;  77073.508; 0;  76495.094;  77073.508;  81352.492;  71927.719;163;   3.897; 310.534;;; 228.975; 193.075;   7.440;  -0.370;  -0.929;   3.897;   3.893;   1.435;  -3.623;  -0.025;;;;;;;;;;;;;;;;;;